Theta_e
317 324 321 318 319 319 319 319 317 315 313 311 312 314 313 312 314 312 312 310 308 309 309 307 309 311 310 312 315 317 319 321 323 324 325 326 328 327 326 324 318 320 323 324 328 333 334 335 336 337 338 339 338 338 338 338 339 339 339 339 339 339 338 338 338 338 338 337 336 336 336 336 335 334 332 329 328 328 327 327 328 327 327 327 328 326
323 324 322 321 319 317 317 315 313 313 312 312 312 314 313 312 313 312 311 310 308 310 308 309 318 318 313 314 316 318 320 320 321 322 323 325 328 328 328 329 327 323 317 314 319 329 334 335 335 336 337 338 338 337 337 338 338 339 339 339 338 338 338 338 338 338 337 337 336 336 337 337 336 335 334 333 333 333 331 331 332 331 328 328 328 324
327 323 321 320 317 315 315 313 313 314 313 313 313 313 314 313 313 312 311 310 309 311 309 312 322 318 313 315 315 318 320 319 319 320 321 324 326 327 327 328 329 329 328 321 314 319 330 334 334 336 336 337 338 338 338 338 338 338 338 338 338 338 338 337 337 337 337 337 336 335 336 337 338 337 336 336 336 336 335 335 335 333 329 328 327 323
323 326 323 318 315 314 314 313 313 315 316 316 314 313 316 313 311 313 314 311 309 309 308 313 319 315 314 317 315 316 319 318 318 319 320 321 322 325 326 327 327 329 333 330 318 313 323 333 334 335 336 336 337 337 337 337 337 337 338 338 337 337 338 337 337 337 338 338 337 336 337 337 338 338 338 338 338 337 337 337 338 335 330 329 329 328
319 323 316 315 316 314 314 316 315 315 319 322 316 313 316 314 311 313 312 312 312 311 309 313 320 318 316 317 316 315 316 317 317 318 319 318 319 321 324 326 326 328 330 332 327 320 322 330 334 334 335 336 336 336 337 337 337 338 338 338 337 337 337 338 338 338 338 338 338 337 337 337 338 338 338 338 338 338 338 338 338 335 332 331 332 333
319 317 312 315 318 315 314 318 318 316 317 322 320 315 314 314 312 312 311 315 319 315 310 311 317 320 319 317 317 316 316 317 316 316 317 318 318 320 323 325 325 326 328 332 333 330 327 328 332 334 335 335 335 336 336 337 337 337 337 337 337 337 337 337 337 338 338 338 338 338 337 337 338 338 338 338 338 338 339 339 338 337 335 334 335 337
319 316 314 315 317 318 318 319 319 316 316 319 319 315 313 312 312 313 312 314 317 314 308 310 315 318 318 318 317 316 317 317 317 317 317 317 319 319 321 325 325 325 326 328 331 333 332 331 332 334 334 335 335 336 336 336 336 336 337 336 337 337 337 337 337 337 338 338 338 338 337 337 337 337 337 338 338 338 338 339 339 339 338 337 337 337
320 317 317 317 318 319 317 318 317 315 317 318 315 313 314 313 312 315 314 313 315 314 312 314 316 315 315 315 316 316 318 318 318 319 318 317 319 319 321 323 325 325 324 326 328 330 333 332 333 334 335 335 335 335 336 336 336 336 336 336 336 337 336 335 335 335 337 337 337 338 337 337 337 337 337 338 338 338 338 339 339 339 339 338 338 337
318 315 317 317 317 316 317 320 317 313 316 319 314 312 313 314 314 315 314 316 315 312 316 318 312 312 315 316 316 317 318 319 319 320 319 318 319 320 321 323 325 325 323 324 325 327 329 330 332 334 334 335 335 336 336 335 336 336 336 336 336 336 335 333 334 334 335 336 337 337 337 337 337 337 337 337 337 338 338 338 338 339 339 339 339 338
315 314 316 314 314 319 324 323 316 312 313 315 312 312 316 317 318 317 316 318 317 313 317 316 309 310 315 316 318 319 319 320 320 320 319 318 320 320 321 322 324 323 323 323 323 324 325 325 327 328 330 331 333 335 336 336 336 336 336 336 336 336 335 333 334 334 335 336 337 337 337 337 336 337 337 337 337 337 337 337 338 338 338 339 339 339
315 315 316 314 313 317 319 315 313 311 310 311 312 315 318 319 323 325 322 318 317 316 317 314 312 312 311 316 320 320 319 319 319 320 319 318 320 320 321 322 321 320 320 320 320 321 322 321 321 322 323 325 328 330 333 334 335 336 336 336 336 336 335 335 334 334 335 336 337 337 337 337 336 336 336 336 337 337 337 337 338 338 338 339 339 339
318 317 314 315 316 315 313 311 311 310 310 311 317 319 316 317 321 324 323 318 316 318 317 314 314 314 314 317 319 318 316 317 318 320 320 319 320 320 320 319 317 316 316 316 316 317 318 318 318 318 318 319 322 325 327 329 331 332 334 335 335 333 334 335 335 334 335 335 336 337 337 337 336 336 336 336 336 336 337 337 337 338 338 339 339 339
319 316 314 317 319 316 314 315 314 314 315 315 321 325 320 319 319 319 320 318 317 318 314 313 316 318 319 320 318 316 315 316 318 319 320 319 319 319 317 315 314 314 315 314 314 314 315 316 316 316 316 316 317 319 321 324 326 328 329 330 330 329 331 333 333 333 333 334 335 336 337 336 336 336 336 336 335 335 336 336 337 338 338 339 339 339
324 320 317 320 320 315 315 319 318 317 317 316 318 322 322 322 321 319 320 316 316 318 312 311 317 319 320 319 316 314 314 316 317 318 320 318 318 318 316 315 314 313 314 315 313 313 313 313 314 315 315 314 314 315 316 317 320 323 325 326 327 327 328 329 329 330 332 333 334 334 335 336 336 336 336 336 335 334 334 334 335 337 338 339 339 339
324 322 319 319 318 316 316 317 317 314 315 314 313 314 317 322 322 317 319 320 318 319 317 315 318 320 320 318 315 312 313 316 318 318 319 318 317 318 316 315 314 312 313 314 313 313 312 312 312 313 313 314 314 314 314 314 315 318 320 323 325 326 327 327 327 329 330 332 333 333 334 335 335 335 335 335 336 334 334 334 333 333 335 336 338 338
319 320 318 316 315 316 317 315 313 312 314 313 311 313 314 320 324 317 315 319 318 319 320 319 319 319 318 317 313 311 312 315 317 317 318 318 317 317 315 315 315 313 313 313 313 313 312 312 312 312 313 313 313 313 313 313 313 314 315 317 319 321 324 326 327 328 329 329 331 332 333 333 334 335 334 334 333 333 334 334 334 333 332 332 333 336
319 320 319 318 317 316 315 316 314 312 317 315 311 314 313 313 322 320 313 315 317 319 319 317 319 318 317 318 314 310 311 313 315 317 317 317 317 316 315 314 314 314 314 313 313 313 312 312 311 311 312 312 312 313 313 313 313 313 314 314 315 316 317 320 323 325 327 328 329 329 330 330 331 332 332 331 331 331 332 333 334 333 332 332 331 331
318 321 320 317 320 319 313 315 316 311 314 317 314 316 313 310 317 319 316 316 318 320 318 316 319 320 320 320 316 312 312 314 315 316 317 317 316 315 315 314 313 313 313 312 312 312 312 311 311 311 311 311 312 312 312 313 313 313 313 313 314 314 314 315 317 319 322 324 327 329 330 330 330 330 330 330 330 330 331 332 332 332 331 332 332 331
316 321 321 316 318 321 316 315 316 314 313 314 314 315 313 315 319 317 316 318 318 319 319 319 320 320 322 321 317 314 314 315 316 316 316 317 316 315 314 313 312 312 312 311 311 311 311 311 311 311 310 311 311 311 312 312 312 313 313 313 313 313 314 314 315 315 317 319 322 326 329 331 332 332 331 331 330 330 330 331 331 331 331 330 331 331
318 320 322 318 317 319 319 318 318 319 318 316 316 317 317 320 321 316 314 317 319 320 320 319 319 320 322 319 315 314 314 316 317 316 316 316 315 314 313 313 312 312 312 312 311 311 310 310 310 311 311 311 310 311 311 311 312 312 312 313 313 313 314 314 315 315 315 316 317 320 325 329 331 332 332 332 331 330 331 332 332 332 331 331 332 332
318 317 319 322 320 318 319 319 316 317 317 317 320 322 321 320 316 314 315 315 318 321 322 321 320 320 320 318 316 315 316 317 315 314 315 315 314 314 313 313 313 313 312 312 311 311 310 310 310 310 310 310 310 310 311 311 311 311 312 312 312 313 313 314 314 314 315 315 315 316 319 325 329 332 332 332 332 331 332 332 332 332 332 333 333 334
318 318 319 322 323 321 320 319 316 316 314 315 318 317 317 318 316 318 319 315 316 319 319 320 322 320 318 318 318 317 316 315 314 314 315 314 314 314 314 314 313 313 313 312 312 311 309 309 310 310 310 310 310 310 310 311 311 311 311 312 312 312 313 313 314 314 315 315 315 315 316 319 325 330 332 333 333 332 332 332 332 332 332 333 333 334
319 320 319 319 321 321 320 319 316 315 314 313 315 314 315 317 319 323 322 317 317 316 314 318 324 321 318 318 319 317 315 314 313 313 314 314 314 314 314 314 313 313 313 312 311 310 309 309 309 310 310 310 310 310 309 310 310 311 311 311 312 312 312 312 312 313 314 315 315 315 315 316 318 323 327 330 332 333 333 333 333 333 333 333 333 333
320 319 318 318 320 320 320 318 313 313 314 314 315 315 315 316 316 320 321 318 319 319 318 321 323 320 317 315 316 316 314 313 312 313 314 315 315 315 314 313 313 314 313 312 311 309 308 309 309 309 309 309 309 309 309 310 310 311 311 311 312 312 311 312 312 312 313 314 314 315 315 315 315 316 319 322 326 328 330 332 332 333 333 334 334 334
317 317 318 320 322 321 321 320 316 316 317 315 315 314 314 314 314 316 316 316 318 318 319 321 321 319 316 314 315 315 313 313 312 312 314 314 314 314 314 314 314 314 314 313 312 310 309 309 309 309 309 309 309 309 309 309 310 311 311 311 311 311 311 311 311 312 312 313 314 314 315 315 316 316 315 316 318 320 323 326 328 330 332 333 333 334
318 316 317 321 322 320 321 320 317 316 316 314 314 315 313 313 315 315 316 318 318 315 316 321 321 317 314 313 314 314 314 313 312 313 314 314 314 314 314 314 314 314 314 313 313 312 310 309 308 309 309 309 309 309 309 309 310 310 311 311 311 311 311 311 311 311 311 312 313 313 314 315 315 316 315 315 315 316 317 319 321 324 326 328 331 332
320 315 315 319 321 319 320 318 314 313 315 315 315 316 315 312 312 313 317 320 319 316 318 320 317 315 314 313 314 315 315 315 314 314 314 314 314 315 314 315 315 314 314 313 313 312 311 310 308 308 309 308 308 309 309 309 310 310 311 311 310 310 310 311 310 310 310 311 312 312 313 314 315 315 315 315 315 315 315 316 316 318 319 321 324 326
322 317 314 315 317 317 317 316 314 314 315 315 314 316 317 314 312 314 318 316 314 317 320 316 313 314 314 314 316 316 315 314 314 314 314 314 314 315 315 316 316 315 315 314 313 312 312 311 308 307 309 308 308 309 309 309 309 309 310 310 310 310 310 310 310 310 310 310 311 311 312 313 313 314 314 315 315 315 315 315 315 316 316 316 318 319
323 319 314 314 315 316 316 316 315 315 315 313 314 316 317 315 313 315 316 312 312 318 320 314 313 315 315 315 317 318 316 315 314 313 313 314 314 315 317 317 316 316 315 315 314 312 313 311 308 307 308 308 308 309 309 309 309 309 309 309 309 309 310 310 310 310 310 310 310 310 311 311 312 312 313 314 314 315 315 315 315 315 315 315 315 316
319 317 317 317 316 317 320 318 316 316 316 315 315 316 316 316 314 314 314 312 312 315 316 314 314 316 316 317 318 317 315 314 313 313 314 315 315 317 318 317 316 316 315 315 314 314 313 309 306 307 308 308 308 309 308 309 309 309 309 309 309 309 309 309 309 309 309 309 309 309 310 310 310 310 311 311 312 313 313 314 314 314 314 315 315 315
316 316 316 317 318 319 320 319 318 319 318 317 317 316 316 315 313 312 313 312 313 314 313 312 314 315 316 317 316 315 313 314 314 315 316 316 316 317 317 317 317 316 316 315 314 314 313 308 305 306 307 308 308 308 308 309 309 309 309 309 309 309 308 308 308 308 308 308 308 308 309 309 309 309 310 310 310 311 311 312 312 313 313 314 314 314
318 316 315 317 320 321 317 316 318 319 317 317 317 316 316 315 312 313 313 312 314 314 312 311 313 316 316 314 314 314 314 315 316 316 317 317 316 317 317 318 317 316 316 315 314 315 315 310 306 306 307 308 308 308 308 308 308 308 308 308 308 308 307 307 306 306 307 307 307 308 308 308 308 309 309 309 309 310 310 310 311 311 311 312 313 313
317 320 319 317 320 319 316 317 319 319 319 319 315 314 317 317 314 313 313 313 313 313 314 315 317 319 317 314 314 315 315 315 316 317 318 317 317 317 317 317 317 317 316 316 315 315 313 309 306 307 307 308 308 308 308 307 308 308 308 308 308 307 307 306 306 305 306 306 306 307 307 308 308 308 309 309 309 309 310 310 310 310 310 311 311 311
315 322 321 317 319 320 316 318 320 319 321 319 313 311 314 317 317 315 314 315 314 312 314 317 316 317 317 317 316 316 316 316 316 317 317 316 317 317 317 317 318 317 316 316 315 312 308 307 307 308 308 308 308 308 307 307 307 307 307 307 307 306 306 305 305 305 305 305 306 306 307 307 307 308 308 308 309 309 309 309 309 310 310 310 310 310
318 322 320 316 318 320 317 319 322 322 323 321 315 312 313 315 318 317 315 316 315 313 313 314 315 316 318 318 319 318 318 317 317 316 317 317 316 316 317 317 317 317 317 317 315 310 307 307 308 307 307 308 308 308 307 307 306 305 305 306 306 306 305 305 304 304 304 305 305 306 306 307 307 307 307 308 308 309 309 309 309 309 309 309 309 310
321 321 318 314 315 317 316 317 320 320 319 317 313 311 312 313 314 313 313 315 316 316 316 316 317 318 317 318 317 316 316 315 314 314 316 317 317 316 316 317 317 316 314 313 312 309 307 307 308 307 307 307 307 307 307 307 306 305 305 305 306 305 305 304 304 304 304 304 305 305 306 306 306 307 307 308 308 308 308 308 309 309 309 309 309 309
319 319 317 313 312 315 317 316 316 316 316 314 312 312 314 316 316 314 314 317 319 317 315 316 318 317 315 316 314 312 312 313 313 315 316 317 317 315 313 313 313 312 309 308 309 308 307 308 307 307 307 307 307 307 307 306 305 304 304 305 305 305 304 304 304 303 303 304 304 305 305 306 306 306 307 307 307 308 308 308 308 308 308 308 308 308
315 318 319 314 311 313 317 318 316 317 320 320 320 318 314 315 318 317 314 317 320 317 313 316 318 317 316 315 312 310 312 313 315 316 318 318 317 314 310 308 307 308 308 308 309 308 307 307 307 307 306 306 306 306 306 306 304 304 304 304 304 304 303 303 303 303 303 304 304 304 305 305 306 306 306 307 307 307 307 306 307 307 307 308 308 308
314 316 318 317 314 312 316 318 317 318 320 321 322 320 314 313 318 318 315 318 320 314 312 316 318 317 318 315 311 311 313 314 315 317 319 319 315 310 310 309 307 307 308 307 308 308 307 307 307 307 306 306 306 306 305 305 304 304 304 304 304 303 303 303 303 303 303 303 304 304 305 305 305 305 306 307 307 306 306 305 305 305 306 306 307 307
315 315 316 317 317 315 316 317 317 316 316 314 317 318 314 314 317 316 315 319 320 313 311 315 318 318 318 315 310 311 314 315 317 318 318 315 308 305 307 309 307 306 306 306 307 308 307 307 307 307 306 306 305 305 305 304 304 303 304 304 303 303 302 303 303 303 303 303 303 304 304 304 305 305 306 306 306 305 304 303 303 303 303 304 305 305
314 313 313 316 320 317 315 315 315 316 316 314 316 317 313 312 316 317 317 320 320 315 310 313 318 318 315 313 310 312 316 316 318 319 316 311 307 304 305 306 306 306 306 306 307 308 307 307 307 306 306 306 305 305 305 304 303 303 304 303 303 302 302 302 303 303 303 303 303 303 303 304 304 305 305 306 305 304 303 302 301 301 302 303 303 304
314 313 311 313 315 314 314 316 316 315 314 314 314 312 309 311 317 321 319 316 316 316 311 311 316 316 313 312 311 313 318 317 316 317 315 314 313 308 304 305 306 306 306 306 307 307 307 307 307 306 305 305 305 305 304 303 303 303 303 304 303 302 302 302 302 303 303 302 303 302 302 303 303 304 305 304 303 302 301 301 301 301 302 302 303 303
316 315 315 314 312 311 314 316 316 316 314 312 311 309 308 314 323 324 318 311 311 315 313 312 314 313 311 312 311 312 317 317 315 315 315 315 314 307 303 305 305 304 305 305 305 305 305 305 306 305 305 305 305 304 304 303 302 302 303 303 303 302 302 302 302 302 302 302 302 302 301 302 302 303 303 303 302 301 301 300 301 301 302 302 303 304
315 315 318 317 314 315 319 319 320 323 318 312 313 316 314 317 322 322 318 314 311 312 312 313 314 311 309 312 313 314 317 316 315 315 314 314 313 306 302 304 304 304 305 304 304 304 303 304 306 305 305 305 305 304 304 302 301 302 303 303 302 301 302 302 301 302 302 302 302 301 301 301 302 302 302 301 301 300 300 300 301 301 302 302 303 304
314 315 319 318 315 318 324 325 323 322 316 310 314 322 321 316 316 317 317 316 314 312 310 312 314 312 308 310 313 315 316 315 315 314 313 314 313 307 303 304 304 304 305 304 304 304 303 304 305 305 305 305 304 304 304 302 301 302 302 302 302 301 301 302 301 301 301 301 301 301 301 301 301 301 301 300 300 300 300 300 301 301 302 302 303 303
313 313 314 315 315 315 317 316 314 316 316 312 311 315 317 315 314 313 314 316 315 312 310 311 313 313 310 308 311 314 315 316 316 314 313 315 314 306 301 303 304 304 304 304 303 303 304 305 305 304 305 305 304 304 304 302 301 301 302 302 301 301 302 302 301 301 301 301 300 301 301 301 301 300 300 300 300 300 300 300 300 300 301 301 302 302
314 312 312 313 315 316 317 318 317 318 318 315 310 310 312 314 312 311 313 316 315 312 311 310 311 312 310 308 309 313 315 315 315 313 313 315 314 306 300 302 304 304 304 304 303 303 304 304 304 304 304 304 303 303 302 301 301 301 301 302 301 301 301 301 301 301 301 300 300 300 300 300 300 299 300 299 299 299 299 299 299 299 300 300 300 301
313 311 314 315 316 319 320 321 321 318 316 315 313 311 311 313 313 311 311 312 312 311 309 307 307 310 311 310 311 312 313 315 315 314 314 315 311 303 299 301 304 305 305 304 303 303 304 304 304 304 303 302 303 303 300 300 300 301 301 301 301 301 301 301 300 301 300 300 299 300 299 299 299 299 299 299 299 299 298 298 298 298 298 299 299 299
311 311 316 316 317 320 319 317 317 316 316 318 316 313 312 313 314 313 311 310 312 312 309 306 305 306 308 310 311 310 312 314 312 310 314 316 309 302 300 302 304 305 305 305 304 303 304 304 304 303 301 300 301 302 300 298 299 300 301 301 301 301 301 300 300 300 300 299 299 299 299 299 299 299 299 299 299 298 298 297 297 297 297 297 298 298
312 316 318 314 315 320 320 319 318 316 319 322 320 317 314 312 312 313 312 312 315 315 312 310 308 304 303 304 305 307 313 314 308 305 308 309 304 301 302 304 304 305 305 305 304 304 304 304 304 302 300 299 300 300 299 298 298 299 301 301 301 301 301 300 300 300 300 299 299 299 299 298 298 298 298 298 298 298 297 297 297 297 296 296 296 296
316 319 319 318 321 323 323 325 321 317 320 325 323 319 314 310 311 314 313 313 316 315 311 311 312 310 308 304 301 303 310 311 305 304 307 304 301 302 304 305 305 305 305 305 304 304 304 304 303 302 299 298 298 299 299 298 297 297 299 301 301 300 300 300 300 300 299 299 299 299 298 298 298 298 298 298 298 297 297 297 297 297 297 296 296 296
Wind_Speed
4 4 2 3 4 6 6 4 5 5 5 4 3 3 3 3 4 5 4 6 3 2 4 4 5 6 6 7 10 9 11 14 13 13 11 10 10 9 10 10 10 8 8 6 5 12 14 17 25 29 30 30 30 31 33 34 34 35 35 34 34 32 32 33 32 31 30 28 27 24 24 24 25 26 28 30 30 29 28 27 27 26 25 23 22 21
5 4 3 6 7 7 5 4 5 4 4 3 2 2 2 3 4 6 3 5 4 3 3 3 6 7 6 5 8 9 12 13 12 12 12 12 11 10 11 12 12 9 10 10 6 8 14 15 18 23 28 30 31 31 33 35 36 36 35 35 35 32 33 34 33 33 31 30 29 27 24 23 23 25 27 29 29 29 28 28 27 26 25 23 22 22
5 1 7 6 4 3 1 3 4 3 3 3 2 1 2 3 3 5 3 4 4 3 1 2 6 4 6 4 6 10 10 8 9 10 9 10 12 12 12 12 12 13 13 12 10 7 9 15 16 19 23 29 32 33 35 35 34 34 35 35 34 33 33 34 35 34 33 31 30 28 26 24 23 25 27 27 26 25 26 28 27 25 25 24 23 23
2 4 7 3 3 4 2 2 4 3 1 3 3 3 2 3 1 3 3 4 4 2 2 3 5 3 5 4 5 8 6 6 8 9 8 9 11 12 11 10 11 14 15 13 10 10 5 8 16 20 21 24 25 28 30 31 31 32 34 34 34 33 33 35 36 35 33 30 28 28 27 26 25 24 24 24 23 24 25 27 27 25 25 24 24 23
4 7 3 3 4 3 1 2 4 3 3 2 3 4 3 3 3 5 3 3 4 4 2 5 4 4 4 5 4 5 5 6 9 10 11 11 11 11 10 10 11 12 13 13 11 10 8 5 10 16 20 22 23 25 28 31 33 33 34 34 34 33 33 35 36 35 32 28 27 27 24 23 24 22 20 21 23 24 26 29 29 26 25 25 24 23
5 5 1 4 4 3 2 1 2 5 1 4 3 6 7 5 5 4 2 4 4 4 3 4 3 4 4 4 5 5 5 7 8 11 13 12 12 12 12 13 13 12 11 10 11 10 9 8 7 7 10 15 18 18 21 26 29 28 28 30 32 32 33 34 35 34 32 29 28 29 27 25 23 22 20 22 25 26 28 31 31 28 26 25 24 23
3 2 3 3 4 5 3 3 4 5 4 2 4 6 6 5 4 2 2 3 2 2 3 3 4 3 4 4 6 7 5 6 9 12 12 11 12 12 11 12 12 13 12 10 11 11 9 9 8 7 5 4 7 8 11 16 20 21 21 24 28 30 31 32 33 33 32 31 30 31 31 29 26 24 22 23 26 27 28 28 27 27 27 26 25 23
2 3 5 4 5 5 3 2 3 5 7 2 4 4 6 5 5 4 4 3 1 2 3 3 4 2 2 2 5 7 4 7 11 13 12 10 11 12 11 12 13 13 12 10 11 12 11 10 9 7 7 5 2 3 5 9 13 17 18 19 23 26 26 25 23 24 27 29 29 29 28 27 27 25 23 23 24 25 25 25 25 25 26 27 26 24
1 1 2 3 4 3 2 4 5 6 4 5 4 5 5 4 4 4 4 3 0 2 3 5 2 2 3 4 5 6 5 9 11 10 11 10 11 12 11 12 12 12 11 10 10 11 13 15 14 12 11 8 2 2 3 4 7 12 14 15 18 22 22 19 18 21 24 24 24 24 23 23 25 24 22 21 21 22 23 23 23 23 24 26 26 25
1 3 4 4 2 2 5 4 5 7 3 2 4 5 4 4 4 3 4 3 2 2 3 5 2 1 3 4 6 6 6 8 9 7 8 10 10 12 11 10 11 11 10 10 10 11 14 17 19 20 20 18 11 4 2 4 4 7 10 12 14 18 18 17 22 27 27 26 23 20 21 21 21 21 21 19 19 21 21 20 20 20 22 25 25 25
4 3 2 3 2 4 5 1 3 6 3 2 5 4 4 4 4 3 3 3 3 1 5 6 2 2 1 3 3 5 6 7 7 6 8 11 12 12 10 9 10 10 10 10 10 12 15 18 21 25 25 24 22 18 10 4 4 5 7 10 12 14 14 14 19 24 24 25 25 21 20 19 19 20 20 20 20 20 20 19 19 20 22 23 23 23
6 4 1 2 2 1 0 1 1 1 1 3 4 4 2 2 4 4 4 3 3 2 5 4 1 4 1 2 2 5 6 7 7 7 8 11 12 11 8 8 9 9 9 10 10 11 13 15 21 24 24 25 27 26 23 17 11 8 5 6 9 8 8 9 12 15 16 18 22 21 19 18 18 19 18 19 21 22 23 22 22 22 22 23 23 22
4 1 3 5 3 4 4 1 1 4 5 5 4 5 3 2 3 2 3 1 1 3 2 2 1 3 1 0 5 7 6 7 6 6 6 9 11 10 8 8 7 8 9 9 9 10 10 11 16 19 20 24 27 27 26 25 22 18 14 7 4 5 4 4 4 6 10 14 18 19 20 19 19 19 18 17 16 17 20 23 25 25 24 23 23 23
3 4 6 5 4 4 4 3 0 2 3 4 3 3 3 2 2 2 3 1 2 2 2 4 2 1 1 1 6 7 7 6 6 6 6 8 10 8 6 7 7 8 9 8 8 9 9 10 14 16 17 20 23 25 26 27 26 24 22 18 11 6 2 4 4 4 8 14 16 17 18 18 18 19 19 19 18 15 15 17 20 24 27 27 26 26
1 3 4 2 2 3 3 2 3 3 1 2 3 4 3 3 3 1 3 1 2 2 3 4 2 1 2 2 6 6 6 5 5 6 5 7 7 5 5 7 8 8 8 7 8 8 10 13 15 16 17 19 20 23 26 27 28 27 26 22 17 13 9 6 5 5 8 12 15 18 20 18 17 16 18 21 23 22 20 19 17 18 21 24 27 28
2 3 5 4 2 2 4 2 2 4 1 2 2 4 1 3 3 1 2 3 2 0 3 3 1 1 1 3 5 6 7 6 6 6 5 7 6 4 5 7 7 7 7 7 7 8 11 15 17 16 17 18 19 22 25 27 28 28 27 26 22 18 15 11 7 3 3 7 11 15 17 16 17 18 18 18 20 22 24 25 24 22 21 23 24 25
1 3 5 4 2 3 4 4 2 2 2 1 1 1 2 3 5 4 1 1 3 2 1 1 1 1 1 1 4 6 7 5 5 7 6 6 5 4 5 6 5 6 6 7 7 8 10 14 16 16 17 18 20 22 25 26 26 26 26 26 26 23 20 17 13 10 6 2 5 8 10 11 13 16 18 18 19 21 22 25 28 27 25 25 25 23
1 3 5 3 2 2 3 2 2 1 2 2 1 3 2 1 4 3 1 2 3 1 1 2 1 2 2 1 2 3 3 3 5 5 5 6 5 4 5 4 4 4 4 5 6 7 9 12 14 16 18 19 20 22 23 24 25 26 26 25 26 25 23 21 19 16 13 9 5 5 6 7 9 11 14 14 17 19 18 20 25 25 23 23 23 24
2 2 5 2 2 5 5 2 1 4 3 2 3 2 2 2 0 1 1 0 1 0 1 1 1 1 2 2 1 0 2 3 5 3 3 4 5 5 5 5 5 4 4 5 6 6 8 11 13 15 18 20 21 22 22 23 24 26 26 25 25 23 21 21 21 20 18 16 13 9 7 6 7 8 9 10 12 15 15 17 21 22 21 21 21 22
2 1 3 3 2 3 4 3 0 4 6 3 2 2 2 2 3 1 1 2 3 2 1 0 1 2 2 2 2 3 3 2 3 2 3 3 4 4 4 5 6 5 5 6 6 5 7 10 13 15 17 19 20 22 23 24 25 24 25 24 23 21 20 21 22 23 22 21 19 15 11 7 7 8 9 10 10 11 13 15 18 20 21 20 20 20
2 2 2 4 4 2 2 1 1 1 2 3 3 3 3 1 1 2 0 1 3 3 2 2 1 3 1 2 4 4 3 2 3 2 2 2 3 3 4 4 5 5 5 6 5 5 6 10 13 15 16 18 19 21 23 24 23 22 22 22 21 20 21 22 22 22 22 21 21 19 16 11 7 6 8 10 10 9 10 11 13 16 18 19 18 18
1 1 1 3 3 2 1 3 4 3 2 1 2 2 0 0 1 2 1 2 2 3 3 3 2 3 1 2 3 2 0 2 2 2 1 1 1 2 3 4 4 4 5 5 5 5 7 10 12 13 15 17 19 21 22 22 21 21 20 20 20 20 20 21 22 21 21 20 20 20 19 16 10 7 6 8 8 9 10 10 11 13 17 18 18 19
2 3 2 2 2 2 4 4 2 2 3 3 2 2 2 1 3 4 2 2 1 2 1 2 1 2 1 1 2 2 1 2 1 0 1 1 1 1 3 4 4 4 5 5 5 6 8 12 13 14 16 17 19 20 21 21 21 20 20 20 20 20 20 21 21 19 18 18 18 18 18 17 15 12 8 7 8 8 9 9 10 11 14 16 16 18
1 2 2 2 3 3 5 3 2 2 3 3 1 2 2 1 0 3 3 2 2 1 1 2 0 3 2 0 1 1 0 1 1 1 1 1 3 3 3 4 4 4 5 5 6 8 11 14 15 17 18 18 19 20 21 21 21 21 21 21 21 20 21 21 20 19 18 17 16 16 16 16 16 15 14 11 9 9 8 8 8 9 10 12 14 15
0 1 2 2 3 5 5 5 4 4 3 2 2 3 1 1 1 2 1 2 1 2 3 4 2 3 1 0 1 1 2 2 2 1 1 1 2 3 3 3 4 4 5 6 6 8 10 12 13 15 17 18 19 20 20 21 21 21 20 20 20 20 20 21 20 19 17 16 16 15 15 15 16 16 15 14 13 11 10 9 7 7 8 9 11 12
2 1 2 3 2 0 1 2 3 3 2 1 2 3 2 3 2 1 1 2 0 2 3 4 2 2 1 0 1 1 2 3 2 2 0 1 1 3 3 3 4 4 5 6 6 7 7 9 12 14 16 18 18 19 19 20 20 21 20 20 20 20 20 21 20 18 17 16 15 15 15 15 15 15 15 14 13 12 10 9 8 7 7 7 8 9
3 2 1 4 4 4 5 4 4 1 1 2 3 5 4 2 1 2 2 1 3 2 1 2 4 4 3 2 2 2 1 1 1 2 1 1 2 3 3 3 3 3 4 5 5 5 6 7 10 13 16 17 17 18 19 19 20 20 20 20 20 20 20 20 19 19 18 16 15 14 14 14 13 13 12 12 11 10 9 8 7 7 6 5 5 6
4 3 2 3 2 4 5 4 2 2 1 1 2 4 4 4 3 4 2 3 3 3 2 4 4 6 5 5 4 4 3 3 4 4 3 2 2 3 3 3 4 4 4 5 5 5 5 6 7 11 14 15 16 17 18 19 20 19 19 19 19 19 20 20 20 19 19 17 16 15 13 12 12 10 10 9 9 8 8 7 6 6 6 5 4 4
5 1 1 1 2 3 2 2 1 2 1 2 2 3 3 4 3 2 3 4 4 3 4 4 6 6 6 6 6 5 5 5 5 5 4 2 2 3 3 3 4 4 5 5 5 5 5 5 6 8 11 13 15 16 17 18 19 19 18 18 18 18 19 20 20 20 19 18 17 16 14 13 11 10 10 9 9 8 8 8 7 7 6 6 6 5
4 0 1 2 3 5 4 3 1 2 1 1 2 3 2 1 1 1 2 3 3 3 3 6 6 5 4 5 6 5 5 5 3 2 2 2 3 3 2 3 4 4 4 4 5 5 5 5 7 8 10 12 13 15 16 17 18 18 18 18 18 19 20 21 21 20 20 19 18 17 16 14 13 12 12 12 11 11 11 11 11 11 10 10 10 9
3 0 1 3 3 5 5 4 2 1 1 3 4 4 3 2 1 0 0 1 2 3 2 4 4 3 4 4 4 2 2 3 2 2 3 4 4 3 3 4 4 4 4 4 5 5 5 5 7 9 10 12 13 14 15 16 17 18 18 19 19 19 20 21 21 21 20 20 20 19 18 17 16 15 14 13 13 13 13 14 14 15 15 15 14 14
3 1 1 4 3 4 5 5 6 5 3 3 5 4 4 4 1 1 2 2 3 4 3 4 3 3 5 2 2 1 3 4 4 5 5 5 4 4 4 4 4 4 5 4 5 5 5 5 6 8 10 11 13 14 15 15 16 17 18 18 19 19 20 21 21 22 21 21 20 20 20 20 20 18 17 16 15 15 15 15 16 16 17 18 18 18
3 3 1 3 2 3 5 5 4 5 5 4 5 3 4 4 2 1 2 3 4 5 5 4 4 5 4 3 4 2 3 4 5 5 4 4 5 4 4 5 5 5 5 4 4 5 5 6 7 8 10 11 12 13 14 14 15 16 17 17 18 18 20 21 21 22 21 21 21 21 21 22 22 22 21 19 18 18 17 17 17 17 18 19 19 20
2 4 2 2 2 3 6 5 4 5 3 3 5 3 5 4 5 5 3 4 5 4 3 3 3 3 3 5 6 5 5 5 5 6 5 4 4 4 4 5 5 5 5 4 4 5 6 8 9 9 10 10 11 11 13 13 15 16 16 15 16 16 18 19 20 21 22 22 21 21 21 22 22 23 23 22 21 21 20 19 19 19 19 20 20 21
3 3 2 2 3 1 3 4 5 2 3 5 4 3 3 4 7 6 3 4 6 5 3 2 3 4 5 5 5 5 5 5 5 5 5 3 4 4 4 5 5 5 5 4 4 6 8 9 10 10 11 11 11 11 12 13 14 15 15 14 14 15 16 17 18 20 21 22 21 21 21 21 22 22 23 23 22 22 22 22 22 22 21 21 22 22
5 3 2 2 2 0 2 4 1 4 6 5 4 3 1 3 5 3 3 5 6 7 6 5 5 6 5 4 3 3 4 3 3 4 5 5 4 5 4 5 4 4 5 5 5 6 8 9 10 11 11 11 11 10 11 12 13 14 14 13 13 14 16 17 17 19 20 21 22 22 21 21 21 22 22 22 23 23 23 24 24 24 24 23 23 23
6 4 2 2 1 1 1 0 2 4 6 4 2 3 3 3 4 4 1 6 6 7 7 5 5 5 4 2 1 2 0 1 2 4 5 5 5 5 5 6 6 7 8 8 7 6 6 8 9 9 10 10 10 10 10 10 11 13 14 14 14 16 17 18 18 19 20 21 22 21 21 21 21 22 22 22 22 22 23 24 25 25 25 24 25 24
5 3 4 2 0 2 3 1 3 4 4 5 6 5 2 4 6 7 3 4 6 6 7 7 7 6 4 2 1 2 3 4 1 5 5 5 5 4 5 8 9 9 9 8 6 6 5 5 6 7 9 9 9 9 9 9 10 12 13 14 15 17 19 20 20 20 21 22 22 22 21 21 21 21 21 20 20 20 22 24 24 25 24 24 24 24
4 2 4 4 1 2 4 1 1 2 4 6 7 7 3 4 6 7 5 5 6 6 7 7 7 7 6 4 3 3 4 3 4 6 5 5 5 4 5 6 6 6 6 6 7 8 6 5 6 7 8 8 8 9 8 8 10 12 12 13 15 17 19 20 21 22 22 22 22 22 21 21 21 21 21 20 19 20 22 23 23 23 23 22 22 23
4 4 3 3 2 2 3 2 3 3 4 5 6 5 3 4 7 8 4 6 6 5 7 8 8 7 6 5 5 5 5 5 5 5 5 5 4 5 6 6 6 5 5 6 8 9 7 7 7 9 9 8 8 8 7 8 11 12 12 13 14 16 19 20 22 22 22 23 23 23 22 22 22 22 21 21 21 21 23 23 23 23 23 22 22 22
2 2 1 2 3 3 4 2 3 4 5 5 4 4 4 4 7 5 3 6 4 5 7 7 8 7 6 7 5 4 5 6 5 4 4 3 2 4 5 6 7 6 6 7 8 10 10 9 9 10 10 7 7 7 7 8 11 13 13 13 14 16 19 20 22 23 23 23 23 24 24 23 22 22 22 21 22 24 24 23 22 22 22 21 20 20
2 1 1 2 3 3 3 2 2 4 4 3 2 2 3 3 2 3 6 4 4 7 7 6 7 7 6 7 7 6 5 5 4 4 4 2 3 4 6 6 7 7 7 7 8 9 10 10 9 9 8 5 5 6 6 9 12 13 12 13 14 16 19 20 22 23 23 23 23 24 24 24 23 22 22 22 23 24 24 22 20 20 19 18 18 18
4 3 1 2 3 2 2 2 1 3 4 5 6 3 1 3 4 5 3 1 3 6 7 6 6 6 7 7 7 7 6 5 4 5 5 4 4 6 7 7 7 7 7 7 8 7 7 8 9 7 6 3 3 5 6 8 11 12 12 12 13 16 18 20 22 23 23 23 23 23 24 23 22 22 22 22 22 23 22 21 20 19 18 17 17 17
3 4 2 2 3 3 2 2 3 3 5 7 7 5 5 6 5 5 5 3 3 4 6 6 6 6 7 8 7 7 6 5 5 5 5 5 5 6 7 8 9 9 8 8 9 7 6 7 7 5 5 3 3 4 4 7 9 10 11 11 13 16 18 20 22 24 24 24 23 23 23 21 20 21 22 22 22 21 21 20 20 19 18 17 17 17
4 5 4 2 3 4 4 5 5 3 4 6 6 5 6 5 4 6 6 5 4 4 5 5 6 7 8 8 7 6 6 5 6 6 6 6 6 7 8 10 11 10 9 10 9 7 6 6 5 4 5 4 4 4 4 5 7 9 9 10 12 15 17 19 22 24 24 24 24 23 22 21 21 21 22 21 21 20 19 19 19 18 17 17 17 16
3 3 3 2 1 3 3 4 3 2 3 6 7 5 3 3 4 5 6 5 5 5 6 6 7 8 8 7 6 5 5 6 6 6 6 6 5 7 10 12 12 12 11 11 8 6 5 5 5 5 6 5 5 5 4 5 6 8 9 9 11 14 15 17 20 22 22 22 22 21 21 21 22 22 22 21 20 19 18 18 17 17 17 16 16 15
2 2 2 1 0 0 2 3 3 4 5 6 7 6 4 4 4 5 6 6 5 6 7 7 7 7 7 7 7 7 7 7 7 7 6 5 5 8 10 12 14 14 13 10 7 5 5 6 7 6 6 6 6 5 5 5 6 8 9 8 10 13 15 16 19 21 21 21 20 20 20 21 21 21 20 20 19 18 17 17 16 16 16 16 16 16
1 3 2 2 2 3 4 6 5 5 6 5 5 6 5 5 6 6 5 4 3 5 7 7 7 6 6 7 8 8 7 6 7 7 6 5 6 8 10 13 15 15 13 10 7 5 7 9 9 7 7 8 8 7 6 7 7 8 9 8 10 13 14 16 19 20 20 21 21 20 20 21 20 20 19 19 18 17 17 17 17 16 16 16 16 17
2 3 2 2 1 2 5 6 3 3 7 7 5 7 7 6 6 6 5 3 2 5 6 6 6 7 7 8 8 7 7 7 7 7 7 6 6 9 12 14 16 15 14 12 9 7 8 10 9 7 7 9 9 8 9 9 8 9 8 8 9 12 13 15 18 19 20 21 21 20 21 21 20 20 20 18 17 15 16 18 18 17 17 18 18 18
2 3 2 3 1 3 5 5 3 1 3 6 6 8 9 7 6 6 5 4 5 7 7 7 7 7 7 9 9 8 7 8 8 8 7 7 9 12 14 15 15 15 15 13 11 9 9 9 9 8 8 9 9 9 11 11 10 9 9 8 9 11 12 14 17 18 19 20 21 21 22 21 20 20 20 19 17 16 16 18 20 19 17 18 19 18
4 5 5 5 4 5 7 7 5 4 3 6 7 7 7 6 7 8 8 8 8 8 8 8 8 7 7 10 12 11 9 8 10 11 8 9 13 15 14 14 15 14 13 13 11 10 10 10 9 9 9 8 8 9 11 12 10 9 9 8 8 10 10 12 15 17 17 19 21 22 22 21 20 20 20 19 19 18 17 18 20 22 21 20 20 20
Wind_Direction
79 62 343 235 226 242 234 188 163 168 154 141 141 156 195 218 269 276 266 287 297 72 13 29 54 10 357 7 4 357 16 29 21 14 12 3 359 356 347 340 332 311 290 298 260 233 224 197 183 184 187 189 190 192 193 196 198 199 200 202 203 202 201 201 201 203 204 204 203 204 208 213 217 217 216 217 215 212 212 215 216 215 215 216 220 222
59 61 262 232 219 227 227 183 141 134 143 133 145 177 273 214 239 268 255 296 304 92 4 28 70 16 346 0 6 16 30 27 14 11 7 360 1 357 352 347 337 329 317 315 306 231 214 208 192 185 184 186 189 192 195 198 199 199 200 203 203 201 201 201 202 203 203 204 203 202 205 211 218 219 219 221 222 219 216 215 216 216 215 215 216 215
26 315 255 246 205 166 120 143 132 121 140 139 132 128 285 245 257 290 283 309 334 85 1 23 81 20 329 344 29 38 41 29 12 12 6 359 4 3 356 350 342 343 339 329 322 294 217 200 194 189 188 189 191 193 197 201 200 198 200 203 204 203 203 203 204 205 204 205 205 204 205 209 216 222 223 224 228 230 226 220 217 216 214 212 212 210
8 257 251 232 136 112 65 89 103 69 79 133 123 120 250 269 273 284 292 329 350 55 134 109 86 7 338 359 49 49 42 34 15 7 9 11 10 3 355 353 350 349 344 333 322 315 288 203 191 193 196 196 195 195 198 200 200 200 202 204 205 205 205 206 207 207 206 206 206 206 206 209 214 223 229 230 235 239 234 228 222 217 214 212 210 209
250 254 234 100 93 117 102 42 95 87 342 291 170 155 206 245 208 225 280 347 360 4 59 89 47 336 350 6 19 27 27 31 14 4 8 11 8 358 355 358 357 355 349 342 336 324 315 277 209 202 201 198 197 199 201 201 202 203 205 205 206 207 208 209 209 208 205 204 203 202 202 207 212 221 229 231 235 238 235 230 225 217 213 213 213 212
262 263 177 82 64 82 97 322 183 150 30 312 235 197 200 202 205 226 330 26 35 350 332 78 57 303 320 8 5 357 11 22 11 8 5 1 5 1 357 358 356 356 354 353 354 340 323 317 291 253 219 205 203 205 207 207 206 206 207 206 206 207 210 211 210 207 204 203 201 198 197 201 206 212 220 224 228 231 231 229 226 220 214 214 215 217
266 310 48 82 82 74 55 316 244 155 105 325 256 206 188 161 154 161 83 69 79 271 293 74 117 252 310 5 359 346 6 20 11 8 1 357 5 3 355 354 354 355 354 358 5 0 351 345 338 333 317 252 220 219 218 214 213 212 210 209 209 210 212 213 211 207 204 203 202 201 201 201 204 208 214 223 229 231 232 232 231 227 220 216 217 219
251 342 24 52 69 61 33 318 240 144 113 241 251 150 134 133 150 160 121 121 192 251 322 18 112 165 291 317 339 342 4 21 16 6 355 357 2 360 357 354 355 356 354 359 10 14 13 13 22 21 4 347 289 254 238 219 216 216 217 215 213 213 215 214 211 207 206 206 206 205 205 205 208 210 212 220 230 234 234 234 236 235 228 222 220 219
246 321 9 65 53 27 261 233 199 153 133 240 223 122 121 133 148 149 115 120 21 23 316 324 41 112 271 284 339 4 22 18 14 359 347 352 357 358 356 352 354 354 352 359 11 18 18 18 26 39 42 33 8 262 252 229 217 217 219 221 218 216 216 213 211 213 214 215 214 211 210 209 212 214 215 217 224 229 230 234 238 239 234 228 224 222
288 228 204 127 105 246 243 242 179 168 197 227 148 94 64 68 73 85 98 114 48 47 248 288 334 174 268 323 356 15 25 7 358 347 340 344 353 357 353 350 356 354 350 357 6 18 21 21 26 37 43 38 35 53 181 211 211 216 218 220 220 218 215 210 213 216 214 214 217 218 217 216 217 216 215 215 218 223 227 232 237 237 234 230 225 223
305 276 192 117 168 221 229 263 151 185 221 116 112 63 37 36 35 43 57 90 69 341 252 273 314 147 232 313 7 26 15 354 347 346 340 344 355 358 355 4 11 3 357 359 5 14 17 23 31 37 39 36 36 42 48 79 141 177 198 211 214 216 218 214 213 214 211 209 211 215 220 221 224 224 220 218 218 219 221 226 231 232 232 230 226 221
344 5 348 287 279 310 61 92 85 291 356 85 92 67 66 350 12 26 358 43 95 260 256 267 351 83 145 267 22 34 13 351 347 350 345 353 6 7 7 18 19 12 6 4 7 8 8 19 30 33 36 38 39 39 38 42 54 75 116 181 188 191 214 220 213 210 212 214 211 211 216 220 226 232 233 231 228 223 218 220 225 228 226 225 224 221
354 4 316 308 316 30 50 112 315 349 24 66 73 69 83 350 13 9 322 6 188 237 260 285 326 71 116 353 31 24 11 352 342 346 357 17 22 12 11 19 18 18 14 9 12 11 6 17 27 28 31 38 42 42 40 39 38 40 42 44 93 119 163 177 166 185 210 224 219 213 214 214 217 224 231 238 243 239 229 223 222 221 221 222 222 221
341 312 338 351 339 14 65 104 254 324 4 34 92 107 105 95 59 312 273 321 278 244 312 319 348 75 221 77 40 12 351 340 344 356 16 41 28 356 1 21 18 21 22 13 13 17 10 13 25 29 29 35 42 44 45 44 41 41 37 29 25 22 273 214 181 168 197 217 226 228 227 222 217 218 222 227 233 241 248 243 233 227 223 222 225 227
65 302 315 344 322 354 48 117 163 169 343 344 154 133 118 149 141 234 229 208 251 245 328 338 25 87 252 58 41 2 336 338 3 4 19 55 34 334 353 26 18 18 25 18 12 20 14 7 17 30 31 33 39 43 46 45 44 45 44 38 29 15 350 303 258 203 190 208 222 228 229 226 224 228 232 232 230 229 237 247 251 249 242 234 233 235
135 251 268 275 272 38 20 300 164 118 85 278 163 96 69 182 141 103 190 170 172 198 359 356 33 30 74 72 42 8 352 357 16 9 20 51 33 343 10 28 18 11 19 23 16 18 15 6 9 23 31 32 34 39 44 45 44 44 45 46 40 27 17 3 341 323 193 207 219 225 230 232 232 233 239 245 244 236 235 237 239 247 256 258 254 249
40 279 282 317 323 63 33 300 261 110 157 236 83 96 238 177 119 108 189 45 64 77 2 282 178 116 166 110 56 18 350 353 22 16 18 30 20 6 25 30 18 6 9 18 19 18 14 7 6 14 25 32 33 35 40 44 45 45 44 46 44 34 28 28 24 17 12 320 243 242 245 247 243 238 241 250 256 252 247 241 235 234 242 255 265 267
135 275 293 351 327 319 10 325 284 5 109 125 159 216 220 107 91 106 129 16 37 76 279 273 194 175 222 217 84 36 335 21 50 33 19 13 6 13 25 29 26 12 4 11 21 24 19 11 9 12 19 28 34 35 37 40 42 45 44 41 41 36 26 26 36 38 32 24 2 312 281 268 260 252 248 250 253 252 248 240 235 233 234 241 254 264
112 295 297 334 279 299 352 40 250 322 355 102 173 195 125 106 68 45 124 125 74 148 277 308 283 229 217 213 113 314 302 42 49 42 36 11 360 9 10 10 18 18 13 19 27 28 21 14 13 16 18 22 29 34 36 37 39 43 45 40 37 34 25 22 31 40 41 38 29 11 342 309 290 279 269 257 244 238 235 234 236 238 236 236 240 249
76 75 277 297 300 309 0 36 162 317 336 5 39 17 45 131 162 159 178 167 134 156 205 170 305 274 226 170 158 210 253 351 25 30 40 15 1 8 1 356 2 6 10 16 19 18 16 14 14 19 22 21 24 29 32 34 35 36 41 41 34 27 25 25 28 33 36 36 34 28 18 354 320 296 283 272 255 238 233 235 240 244 245 243 241 245
49 70 248 299 337 23 21 8 160 208 317 347 22 19 3 12 145 155 143 88 119 146 175 145 237 272 282 130 163 195 256 334 17 17 24 22 5 356 349 348 349 352 358 1 4 5 7 11 15 20 22 21 22 26 28 30 30 30 35 39 34 24 22 24 26 28 30 31 33 33 31 21 355 314 290 281 271 258 251 251 251 254 256 257 257 257
96 111 206 315 348 25 253 224 190 179 191 172 82 78 175 265 125 130 294 318 91 123 167 155 185 264 332 123 169 169 275 331 4 3 340 18 11 339 333 331 332 339 343 342 344 350 357 6 13 17 19 20 19 21 24 25 25 25 27 32 32 26 22 23 23 24 25 26 28 31 33 31 24 2 326 307 295 281 275 276 274 268 265 265 268 268
150 113 89 322 291 234 253 244 173 170 168 145 107 100 140 114 91 122 204 254 95 80 128 120 131 266 289 105 147 135 212 285 343 341 254 334 337 328 330 325 331 341 336 333 337 346 356 3 9 13 15 17 18 17 18 18 18 18 19 24 26 24 22 22 22 20 20 22 24 27 31 32 31 26 11 348 328 313 301 294 290 283 276 275 276 275
155 89 77 312 303 299 299 325 48 59 84 94 14 32 97 339 98 153 177 176 139 151 126 89 341 265 261 188 135 115 240 266 72 126 160 14 339 335 334 327 341 352 342 341 347 352 359 4 9 12 11 11 13 14 14 15 15 14 16 19 21 21 20 19 19 17 16 18 19 21 25 28 30 30 27 19 4 349 336 322 307 295 287 284 282 279
212 74 79 60 3 347 339 351 2 358 31 78 309 325 2 5 53 148 152 78 113 201 148 128 228 247 233 25 31 25 29 71 67 48 137 125 343 330 326 333 353 359 350 350 352 353 358 2 6 8 8 9 10 11 12 14 15 15 17 18 19 19 19 18 17 15 14 14 16 17 20 22 25 26 26 25 22 16 6 353 337 317 300 290 285 281
116 120 101 111 105 348 301 296 279 295 335 349 314 330 1 32 45 179 169 82 169 222 132 139 206 228 225 40 45 6 36 70 54 359 46 142 315 304 304 336 359 358 352 350 349 351 355 357 360 2 4 7 10 12 13 13 14 15 16 17 18 18 17 18 17 15 14 14 15 16 17 19 20 21 21 22 23 24 22 16 5 349 332 313 299 291
96 80 99 137 153 178 190 221 228 197 21 335 319 337 357 358 4 112 107 142 193 167 121 214 190 155 177 200 193 283 328 121 215 285 315 286 289 289 296 323 349 355 351 345 344 350 356 354 352 355 359 2 8 13 16 15 14 14 12 12 15 15 14 15 16 14 14 14 15 16 16 18 20 19 19 20 21 21 22 24 20 10 359 344 323 309
96 33 18 117 155 193 192 228 239 139 127 246 292 329 340 347 26 101 157 218 161 115 285 254 170 148 185 210 208 233 244 217 230 240 228 233 271 296 309 330 348 354 351 347 346 347 350 347 343 348 353 356 0 6 12 16 16 15 11 10 11 11 10 11 12 12 12 12 13 12 11 12 14 12 10 8 7 8 9 10 9 5 1 356 349 339
108 21 321 87 345 290 235 246 225 144 170 210 219 261 305 351 34 112 208 215 146 145 227 200 154 162 195 211 216 220 209 201 216 227 223 231 277 302 320 337 338 337 338 337 334 333 337 335 332 340 347 351 354 356 359 6 10 11 11 11 10 9 7 7 8 8 8 8 7 5 3 2 360 355 349 343 340 339 338 337 334 330 328 327 329 329
112 256 271 89 5 314 293 282 217 105 28 277 239 235 227 357 294 209 251 225 155 148 185 161 159 196 213 202 211 224 217 208 217 231 240 255 264 280 304 312 306 307 314 316 314 318 323 324 330 339 346 349 352 353 353 356 360 1 2 4 5 4 3 3 3 3 3 3 2 360 357 354 351 346 340 336 332 328 323 320 315 311 308 305 305 305
97 137 280 80 33 312 306 322 335 16 310 275 272 241 179 125 327 265 238 205 119 98 110 128 143 236 256 204 197 229 200 158 145 192 228 252 253 263 287 291 292 294 295 297 299 305 311 322 336 343 345 348 352 354 355 355 358 359 359 360 360 0 1 2 1 359 357 355 355 356 355 353 349 344 338 334 331 327 321 316 311 307 305 302 300 299
89 105 28 65 43 305 313 334 320 323 339 318 310 274 189 154 151 206 194 194 158 129 110 101 127 238 252 195 133 88 145 151 176 212 233 256 248 238 256 270 280 280 279 287 295 303 309 316 330 336 341 349 354 358 359 358 359 0 360 359 358 358 359 0 360 359 357 355 352 351 351 350 347 344 341 337 333 328 324 319 313 308 304 301 300 300
111 121 120 91 80 287 306 329 319 348 18 345 310 281 184 165 158 198 262 238 182 142 131 150 204 231 222 159 140 168 187 188 211 221 226 244 241 234 238 248 261 268 268 276 285 293 298 305 322 333 341 349 354 358 1 1 360 359 358 359 359 358 357 356 356 357 356 356 355 351 348 346 344 342 340 338 336 332 327 323 318 314 310 305 302 301
91 103 129 130 103 285 299 333 18 31 31 268 260 219 189 188 166 172 227 226 192 168 156 185 229 237 186 164 171 188 201 204 212 221 222 216 218 233 245 250 259 268 279 287 282 282 295 312 328 336 343 352 355 357 1 4 2 359 359 1 1 1 360 356 354 354 353 353 354 352 349 344 341 338 337 336 335 332 329 326 321 319 316 312 308 304
107 93 110 111 99 229 304 12 39 16 242 244 282 280 215 184 155 162 244 242 202 199 196 197 232 222 193 190 193 191 208 221 222 231 239 226 208 217 244 263 269 274 286 292 285 292 307 320 329 334 341 350 352 354 360 5 5 2 3 5 2 0 359 356 354 354 351 349 349 349 347 343 338 335 333 333 332 329 327 325 322 319 318 315 311 307
136 134 124 102 114 203 11 49 58 270 263 269 315 318 220 123 114 116 315 282 221 196 188 198 223 221 203 214 239 232 232 248 264 256 253 248 227 211 223 248 258 263 270 269 270 287 308 320 324 330 340 348 354 358 1 4 5 1 2 6 3 358 357 355 354 354 350 346 345 344 343 341 336 332 330 329 328 325 322 320 318 316 315 313 309 306
135 139 126 103 155 141 79 248 266 310 322 313 286 245 195 155 146 147 215 273 239 192 179 185 202 218 218 219 325 318 260 66 351 290 266 252 239 220 224 242 250 257 267 272 272 275 294 314 321 330 341 347 356 3 3 5 5 0 1 5 3 359 356 354 352 352 349 345 344 342 340 339 336 332 329 327 324 321 319 317 314 312 311 309 305 303
120 148 160 160 185 105 99 341 331 356 325 273 250 257 236 152 150 135 107 296 263 206 180 171 177 200 207 162 48 16 70 99 225 277 276 266 255 234 236 253 256 258 267 269 255 247 264 295 312 325 336 345 356 1 1 5 4 1 2 5 3 359 357 355 352 349 347 345 343 341 340 338 336 332 328 324 321 319 318 315 311 308 307 305 302 300
58 59 113 117 97 119 122 139 260 241 258 248 247 270 278 146 135 99 55 314 267 208 176 166 173 192 192 175 164 123 108 145 227 257 260 255 250 228 227 245 246 245 256 253 234 231 246 275 294 308 323 341 354 354 356 1 1 1 2 2 2 1 358 354 351 349 347 345 343 342 340 338 336 333 327 321 317 317 317 313 309 305 303 301 298 296
44 29 64 116 179 176 144 174 238 235 249 248 246 256 225 148 102 73 37 282 254 203 176 166 175 193 185 164 153 143 153 188 217 236 240 244 248 235 223 225 228 238 261 263 245 237 248 270 289 303 318 340 351 348 351 356 356 358 0 0 1 1 357 354 352 351 349 347 346 344 342 338 335 332 328 321 316 316 316 313 309 305 303 300 297 294
70 44 72 148 170 170 167 208 267 259 245 244 239 213 180 122 71 74 223 243 216 183 185 175 176 187 175 157 163 184 201 206 209 233 261 265 249 242 234 227 236 255 273 271 256 249 256 268 285 305 321 340 350 346 350 353 353 355 358 359 1 360 358 357 355 353 352 350 348 346 343 340 334 330 326 321 319 318 318 317 313 308 305 302 300 297
154 108 88 139 142 154 170 192 291 282 249 198 139 153 156 117 100 210 223 220 170 171 187 190 185 182 174 175 190 209 228 239 242 254 268 242 211 240 247 232 234 248 253 257 259 260 267 270 279 307 330 344 344 342 347 349 351 353 353 355 358 358 358 359 357 354 352 351 348 346 344 341 336 330 326 324 324 323 321 320 317 312 308 306 303 300
173 162 209 197 171 139 80 71 20 289 243 159 119 99 131 167 198 214 197 141 169 171 172 189 198 184 179 194 213 225 246 275 274 253 253 248 237 243 237 223 230 244 249 258 266 273 281 273 272 301 330 332 319 331 341 344 346 349 349 350 355 357 357 359 357 354 352 350 348 346 345 342 337 332 328 326 326 326 324 321 318 314 310 307 306 303
190 171 201 230 183 135 110 191 217 224 211 181 154 160 204 202 187 172 153 154 199 181 166 187 208 198 187 194 212 224 235 255 257 241 238 242 244 242 235 232 238 245 253 266 271 280 289 272 265 295 313 291 292 310 327 340 343 343 343 347 354 357 358 358 356 354 352 351 349 348 347 343 339 334 330 328 328 327 325 321 317 314 312 309 307 305
223 193 176 179 185 173 181 212 227 222 209 207 196 196 216 217 185 160 155 162 194 194 173 181 203 205 197 197 204 213 219 226 228 221 214 219 228 230 228 232 236 240 255 271 277 287 286 261 251 286 290 273 281 290 301 333 339 337 338 345 355 359 358 358 356 354 353 351 350 350 348 343 340 337 334 333 331 328 324 321 317 316 314 310 309 306
244 191 158 152 241 251 236 229 239 252 244 233 226 220 223 226 198 170 161 174 196 191 177 186 201 199 192 191 197 210 223 222 219 219 218 221 233 234 231 235 241 244 253 268 279 290 284 253 247 267 278 283 292 288 292 317 328 333 338 347 358 2 0 358 356 354 353 351 350 350 347 341 340 340 339 337 334 328 323 320 318 316 314 311 310 309
274 166 159 166 56 313 269 261 244 241 247 236 227 232 248 239 211 183 181 194 195 185 188 199 200 189 180 182 193 211 225 216 206 213 222 223 232 238 236 238 242 244 249 264 281 291 274 254 252 262 278 296 306 303 302 314 326 336 341 348 359 3 2 360 357 354 354 352 350 347 344 340 338 339 339 338 336 331 325 321 319 316 315 314 313 314
220 147 169 197 154 166 238 256 254 260 269 253 221 225 239 228 211 206 211 209 185 190 203 202 187 173 173 187 198 210 223 217 203 206 217 223 230 237 236 236 240 243 249 257 270 284 276 264 263 276 294 306 313 316 315 321 329 335 339 348 357 360 0 1 359 356 354 353 350 348 345 342 340 339 338 337 335 332 328 326 324 321 319 317 315 315
144 161 187 178 161 291 281 272 276 302 294 279 241 227 227 212 198 205 217 216 188 201 213 210 198 189 188 196 200 200 214 223 210 201 208 219 228 235 236 237 241 245 249 254 261 276 280 272 269 279 299 312 316 314 313 320 327 330 335 345 354 357 360 360 358 357 356 354 352 349 346 344 342 341 339 336 334 333 331 331 330 325 321 320 319 316
151 195 191 127 120 279 267 238 188 169 274 270 248 229 220 202 180 181 191 201 207 207 205 207 215 218 217 216 205 190 204 225 215 202 210 223 229 232 233 236 242 247 252 257 261 267 271 268 262 269 291 310 315 309 307 312 319 326 331 339 349 354 358 359 357 356 357 356 353 350 347 344 343 342 341 337 334 332 332 336 340 337 331 326 324 323
178 188 175 157 183 227 236 222 189 165 226 255 248 229 211 182 165 176 192 204 211 210 200 196 202 216 232 233 217 201 206 220 208 200 211 231 234 235 236 239 245 251 256 258 260 265 265 257 249 258 277 298 309 306 302 305 314 325 328 333 344 349 353 357 355 354 356 356 354 351 348 344 342 342 341 339 337 335 332 334 339 345 346 343 338 337